| time (UTC) | temp F | wind direction | speed MPH | gust MPH | rain 1hr in | rain 24hr in | rain mn in | humidity % | barometer mb |
| 20260506001557 | 81 | 220 | 2.0 | 9.0 | 0.00 | 0.00 | 0.00 | 77 | 1006.6 |
| 20260506001045 | 81 | 204 | 4.0 | 9.0 | 0.00 | 0.00 | 0.00 | 77 | 1006.5 |
| 20260506000546 | 81 | 199 | 3.0 | 11.0 | 0.00 | 0.00 | 0.00 | 77 | 1006.5 |
| 20260506000101 | 81 | 225 | 3.0 | 11.0 | 0.00 | 0.00 | 0.00 | 77 | 1006.5 |
| 20260505235545 | 81 | 225 | 4.0 | 11.0 | 0.00 | 0.00 | 0.00 | 76 | 1006.5 |
| 20260505235045 | 81 | 182 | 4.0 | 11.0 | 0.00 | 0.00 | 0.00 | 76 | 1006.4 |
| 20260505234557 | 81 | 177 | 4.0 | 9.0 | 0.00 | 0.00 | 0.00 | 76 | 1006.6 |
| 20260505234044 | 81 | 251 | 3.0 | 8.0 | 0.00 | 0.00 | 0.00 | 76 | 1006.6 |
| 20260505233544 | 82 | 211 | 4.0 | 8.0 | 0.00 | 0.00 | 0.00 | 75 | 1006.4 |
| 20260505233059 | 82 | 209 | 4.0 | 9.0 | 0.00 | 0.00 | 0.00 | 76 | 1006.3 |
| 20260505232545 | 82 | 197 | 3.0 | 9.0 | 0.00 | 0.00 | 0.00 | 75 | 1006.2 |
| 20260505232047 | 81 | 207 | 3.0 | 8.0 | 0.00 | 0.00 | 0.00 | 76 | 1006.3 |
| 20260505231553 | 81 | 248 | 3.0 | 8.0 | 0.00 | 0.00 | 0.00 | 76 | 1006.2 |
| 20260505231047 | 82 | 201 | 2.0 | 8.0 | 0.00 | 0.00 | 0.00 | 76 | 1006.3 |
| 20260505230545 | 82 | 203 | 4.0 | 10.0 | 0.00 | 0.00 | 0.00 | 75 | 1006.2 |
| 20260505230104 | 82 | 206 | 4.0 | 10.0 | 0.00 | 0.00 | 0.00 | 74 | 1006.2 |
| 20260505225548 | 82 | 161 | 3.0 | 10.0 | 0.00 | 0.00 | 0.00 | 75 | 1006.3 |
| 20260505225045 | 82 | 202 | 5.0 | 10.0 | 0.00 | 0.00 | 0.00 | 74 | 1006.3 |
| 20260505224553 | 82 | 236 | 4.0 | 11.0 | 0.00 | 0.00 | 0.00 | 74 | 1006.2 |
| 20260505224046 | 82 | 172 | 5.0 | 11.0 | 0.00 | 0.00 | 0.00 | 74 | 1006.2 |
| 20260505223545 | 82 | 213 | 4.0 | 13.0 | 0.00 | 0.00 | 0.00 | 76 | 1006.2 |
| 20260505223108 | 82 | 227 | 4.0 | 13.0 | 0.00 | 0.00 | 0.00 | 75 | 1006.1 |
| 20260505222544 | 82 | 190 | 5.0 | 11.0 | 0.00 | 0.00 | 0.00 | 74 | 1006.1 |
| 20260505222045 | 82 | 202 | 5.0 | 12.0 | 0.00 | 0.00 | 0.00 | 74 | 1006.1 |
| 20260505221553 | 83 | 233 | 4.0 | 12.0 | 0.00 | 0.00 | 0.00 | 74 | 1006.1 |
| 20260505221047 | 83 | 202 | 5.0 | 9.0 | 0.00 | 0.00 | 0.00 | 73 | 1006.0 |
| 20260505220544 | 82 | 209 | 4.0 | 10.0 | 0.00 | 0.00 | 0.00 | 73 | 1006.0 |
| 20260505220053 | 83 | 188 | 4.0 | 11.0 | 0.00 | 0.00 | 0.00 | 73 | 1006.2 |
| 20260505215545 | 83 | 220 | 4.0 | 11.0 | 0.00 | 0.00 | 0.00 | 72 | 1006.3 |
| 20260505215044 | 83 | 278 | 4.0 | 10.0 | 0.00 | 0.00 | 0.00 | 72 | 1006.3 |
| 20260505214557 | 83 | 221 | 5.0 | 11.0 | 0.00 | 0.00 | 0.00 | 72 | 1006.4 |
| 20260505214045 | 83 | 244 | 5.0 | 13.0 | 0.00 | 0.00 | 0.00 | 72 | 1006.5 |
| 20260505213548 | 82 | 216 | 6.0 | 13.0 | 0.00 | 0.00 | 0.00 | 73 | 1006.5 |
| 20260505213100 | 83 | 231 | 6.0 | 12.0 | 0.00 | 0.00 | 0.00 | 72 | 1006.6 |
| 20260505212545 | 83 | 223 | 5.0 | 12.0 | 0.00 | 0.00 | 0.00 | 73 | 1006.7 |
| 20260505212045 | 83 | 217 | 5.0 | 11.0 | 0.00 | 0.00 | 0.00 | 72 | 1006.6 |
| 20260505211556 | 83 | 224 | 4.0 | 10.0 | 0.00 | 0.00 | 0.00 | 74 | 1006.6 |
| 20260505211045 | 83 | 204 | 4.0 | 12.0 | 0.00 | 0.00 | 0.00 | 74 | 1006.7 |
| 20260505210544 | 83 | 259 | 6.0 | 12.0 | 0.00 | 0.00 | 0.00 | 73 | 1006.7 |
| 20260505210057 | 83 | 225 | 4.0 | 10.0 | 0.00 | 0.00 | 0.00 | 74 | 1006.8 |
| 20260505205544 | 83 | 212 | 5.0 | 16.0 | 0.00 | 0.00 | 0.00 | 73 | 1006.8 |
| 20260505205045 | 82 | 217 | 7.0 | 16.0 | 0.00 | 0.00 | 0.00 | 74 | 1006.9 |
| 20260505204601 | 82 | 217 | 5.0 | 16.0 | 0.00 | 0.00 | 0.00 | 73 | 1006.9 |
| 20260505204044 | 82 | 254 | 7.0 | 14.0 | 0.00 | 0.00 | 0.00 | 73 | 1007.0 |
| 20260505203544 | 83 | 200 | 6.0 | 14.0 | 0.00 | 0.00 | 0.00 | 74 | 1007.1 |
| 20260505203054 | 83 | 221 | 6.0 | 14.0 | 0.00 | 0.00 | 0.00 | 72 | 1007.0 |
| 20260505202543 | 83 | 219 | 5.0 | 14.0 | 0.00 | 0.00 | 0.00 | 73 | 1007.0 |
| 20260505202044 | 82 | 215 | 6.0 | 16.0 | 0.00 | 0.00 | 0.00 | 73 | 1007.1 |
| 20260505201551 | 82 | 230 | 6.0 | 16.0 | 0.00 | 0.00 | 0.00 | 73 | 1007.3 |
| 20260505201045 | 83 | 235 | 7.0 | 12.0 | 0.00 | 0.00 | 0.00 | 71 | 1007.3 |
| 20260505200544 | 83 | 195 | 5.0 | 11.0 | 0.00 | 0.00 | 0.00 | 73 | 1007.3 |
| 20260505200051 | 83 | 192 | 6.0 | 11.0 | 0.00 | 0.00 | 0.00 | 72 | 1007.3 |
| 20260505195547 | 83 | 199 | 6.0 | 13.0 | 0.00 | 0.00 | 0.00 | 71 | 1007.3 |
| 20260505195044 | 83 | 190 | 6.0 | 13.0 | 0.00 | 0.00 | 0.00 | 71 | 1007.4 |
| 20260505194605 | 83 | 206 | 6.0 | 10.0 | 0.00 | 0.00 | 0.00 | 71 | 1007.4 |
| 20260505194044 | 84 | 208 | 3.0 | 11.0 | 0.00 | 0.00 | 0.00 | 71 | 1007.4 |
| 20260505193545 | 83 | 220 | 5.0 | 11.0 | 0.00 | 0.00 | 0.00 | 73 | 1007.6 |
| 20260505193049 | 83 | 197 | 4.0 | 10.0 | 0.00 | 0.00 | 0.00 | 72 | 1007.6 |
| 20260505192544 | 82 | 239 | 4.0 | 11.0 | 0.00 | 0.00 | 0.00 | 74 | 1007.8 |
| 20260505192044 | 82 | 238 | 6.0 | 11.0 | 0.00 | 0.00 | 0.00 | 72 | 1007.9 |
| 20260505191559 | 82 | 221 | 5.0 | 9.0 | 0.00 | 0.00 | 0.00 | 72 | 1008.0 |
| 20260505191044 | 82 | 222 | 4.0 | 8.0 | 0.00 | 0.00 | 0.00 | 75 | 1007.9 |
| 20260505190543 | 81 | 188 | 4.0 | 11.0 | 0.00 | 0.00 | 0.00 | 75 | 1008.1 |
| 20260505190056 | 80 | 263 | 4.0 | 11.0 | 0.00 | 0.00 | 0.00 | 75 | 1008.2 |
| 20260505185549 | 80 | 218 | 5.0 | 11.0 | 0.00 | 0.00 | 0.00 | 74 | 1008.2 |
| 20260505185050 | 81 | 254 | 5.0 | 12.0 | 0.00 | 0.00 | 0.00 | 73 | 1008.4 |
| 20260505184553 | 81 | 219 | 6.0 | 15.0 | 0.00 | 0.00 | 0.00 | 73 | 1008.4 |
| 20260505184044 | 80 | 195 | 6.0 | 15.0 | 0.00 | 0.00 | 0.00 | 76 | 1008.5 |
| 20260505183548 | 81 | 197 | 5.0 | 12.0 | 0.00 | 0.00 | 0.00 | 76 | 1008.6 |
| 20260505183100 | 81 | 194 | 4.0 | 12.0 | 0.00 | 0.00 | 0.00 | 75 | 1008.5 |
| 20260505182544 | 79 | 216 | 7.0 | 11.0 | 0.00 | 0.00 | 0.00 | 76 | 1008.6 |
| 20260505182043 | 79 | 233 | 5.0 | 11.0 | 0.00 | 0.00 | 0.00 | 79 | 1008.8 |
| 20260505181553 | 78 | 229 | 6.0 | 11.0 | 0.00 | 0.00 | 0.00 | 78 | 1008.9 |
| 20260505181044 | 79 | 234 | 4.0 | 10.0 | 0.00 | 0.00 | 0.00 | 79 | 1008.9 |
| 20260505180543 | 78 | 265 | 5.0 | 12.0 | 0.00 | 0.00 | 0.00 | 79 | 1008.8 |
| 20260505180051 | 78 | 234 | 6.0 | 12.0 | 0.00 | 0.00 | 0.00 | 78 | 1008.8 |
| 20260505175543 | 78 | 231 | 5.0 | 11.0 | 0.00 | 0.00 | 0.00 | 80 | 1008.8 |
| 20260505175044 | 78 | 221 | 5.0 | 11.0 | 0.00 | 0.00 | 0.00 | 78 | 1009.0 |
| 20260505174558 | 78 | 234 | 6.0 | 13.0 | 0.00 | 0.00 | 0.00 | 79 | 1009.0 |
| 20260505174044 | 77 | 221 | 6.0 | 13.0 | 0.00 | 0.00 | 0.00 | 80 | 1009.0 |
| 20260505173543 | 77 | 215 | 6.0 | 11.0 | 0.00 | 0.00 | 0.00 | 80 | 1009.1 |
| 20260505173049 | 77 | 224 | 6.0 | 13.0 | 0.00 | 0.00 | 0.00 | 79 | 1009.1 |
| 20260505172545 | 77 | 225 | 7.0 | 13.0 | 0.00 | 0.00 | 0.00 | 80 | 1009.0 |
| 20260505172043 | 77 | 209 | 6.0 | 11.0 | 0.00 | 0.00 | 0.00 | 80 | 1009.0 |
| 20260505171555 | 76 | 221 | 5.0 | 13.0 | 0.00 | 0.00 | 0.00 | 81 | 1009.0 |
| 20260505171047 | 76 | 259 | 7.0 | 14.0 | 0.00 | 0.00 | 0.00 | 82 | 1009.0 |
| 20260505170543 | 76 | 224 | 5.0 | 14.0 | 0.00 | 0.00 | 0.00 | 82 | 1009.2 |
| 20260505170049 | 76 | 208 | 5.0 | 10.0 | 0.00 | 0.00 | 0.00 | 82 | 1009.2 |
| 20260505165544 | 76 | 238 | 6.0 | 11.0 | 0.00 | 0.00 | 0.00 | 82 | 1009.1 |
| 20260505165043 | 75 | 242 | 5.0 | 11.0 | 0.00 | 0.00 | 0.00 | 83 | 1009.2 |
| 20260505164600 | 75 | 233 | 6.0 | 14.0 | 0.00 | 0.00 | 0.00 | 82 | 1009.3 |
| 20260505164043 | 75 | 207 | 7.0 | 14.0 | 0.00 | 0.00 | 0.00 | 83 | 1009.2 |
| 20260505163543 | 75 | 219 | 4.0 | 10.0 | 0.00 | 0.00 | 0.00 | 83 | 1009.3 |
| 20260505163055 | 75 | 196 | 5.0 | 10.0 | 0.00 | 0.00 | 0.00 | 83 | 1009.4 |
| 20260505162547 | 75 | 236 | 5.0 | 9.0 | 0.00 | 0.00 | 0.00 | 84 | 1009.4 |
| 20260505162045 | 74 | 225 | 5.0 | 13.0 | 0.00 | 0.00 | 0.00 | 84 | 1009.4 |
| 20260505161551 | 74 | 215 | 5.0 | 13.0 | 0.00 | 0.00 | 0.00 | 84 | 1009.3 |
| 20260505161045 | 74 | 234 | 5.0 | 11.0 | 0.00 | 0.00 | 0.00 | 85 | 1009.3 |
| 20260505160544 | 74 | 230 | 5.0 | 12.0 | 0.00 | 0.00 | 0.00 | 85 | 1009.3 |
| 20260505153108 | 73 | 225 | 4.0 | 11.0 | 0.00 | 0.00 | 0.00 | 86 | 1009.3 |
| 20260505152544 | 73 | 227 | 5.0 | 11.0 | 0.00 | 0.00 | 0.00 | 86 | 1009.3 |
| 20260505152043 | 73 | 227 | 5.0 | 10.0 | 0.00 | 0.00 | 0.00 | 86 | 1009.4 |
| 20260505151558 | 73 | 218 | 6.0 | 12.0 | 0.00 | 0.00 | 0.00 | 86 | 1009.3 |
| 20260505151044 | 73 | 229 | 6.0 | 12.0 | 0.00 | 0.00 | 0.00 | 86 | 1009.4 |
| 20260505150545 | 72 | 215 | 6.0 | 10.0 | 0.00 | 0.00 | 0.00 | 86 | 1009.3 |
| 20260505140544 | 72 | 223 | 6.0 | 12.0 | 0.00 | 0.00 | 0.00 | 87 | 1008.8 |
| 20260505124553 | 70 | 227 | 4.0 | 10.0 | 0.00 | 0.00 | 0.00 | 88 | 1008.3 |
| 20260505124043 | 70 | 211 | 5.0 | 10.0 | 0.00 | 0.00 | 0.00 | 88 | 1008.2 |
| 20260505123543 | 70 | 227 | 4.0 | 14.0 | 0.00 | 0.00 | 0.00 | 89 | 1008.0 |
| 20260505123057 | 70 | 222 | 5.0 | 14.0 | 0.00 | 0.00 | 0.00 | 89 | 1007.9 |
| 20260505122544 | 70 | 229 | 5.0 | 13.0 | 0.00 | 0.00 | 0.00 | 89 | 1007.8 |
| 20260505122045 | 70 | 232 | 4.0 | 9.0 | 0.00 | 0.00 | 0.00 | 88 | 1007.7 |
| 20260505121548 | 70 | 213 | 4.0 | 9.0 | 0.00 | 0.00 | 0.00 | 89 | 1007.8 |
| 20260505121044 | 70 | 241 | 4.0 | 10.0 | 0.00 | 0.00 | 0.00 | 88 | 1007.6 |
| 20260505120545 | 70 | 216 | 5.0 | 10.0 | 0.00 | 0.00 | 0.00 | 88 | 1007.5 |
| 20260505120053 | 70 | 207 | 4.0 | 9.0 | 0.00 | 0.00 | 0.00 | 88 | 1007.4 |
| 20260505115546 | 70 | 219 | 4.0 | 9.0 | 0.00 | 0.00 | 0.00 | 88 | 1007.5 |
| 20260505115044 | 70 | 214 | 4.0 | 9.0 | 0.00 | 0.00 | 0.00 | 88 | 1007.5 |
| 20260505114550 | 70 | 227 | 4.0 | 7.0 | 0.00 | 0.00 | 0.00 | 88 | 1007.5 |
| 20260505114043 | 70 | 216 | 3.0 | 8.0 | 0.00 | 0.00 | 0.00 | 88 | 1007.4 |
| 20260505113542 | 70 | 209 | 4.0 | 9.0 | 0.00 | 0.00 | 0.00 | 88 | 1007.5 |
| 20260505113052 | 70 | 217 | 4.0 | 9.0 | 0.00 | 0.00 | 0.00 | 87 | 1007.5 |
| 20260505112543 | 70 | 198 | 4.0 | 9.0 | 0.00 | 0.00 | 0.00 | 87 | 1007.4 |
| 20260505112044 | 70 | 242 | 3.0 | 8.0 | 0.00 | 0.00 | 0.00 | 87 | 1007.5 |
| 20260505111555 | 70 | 225 | 4.0 | 8.0 | 0.00 | 0.00 | 0.00 | 87 | 1007.6 |
| 20260505111043 | 70 | 252 | 5.0 | 8.0 | 0.00 | 0.00 | 0.00 | 87 | 1007.6 |
| 20260505110547 | 70 | 238 | 3.0 | 8.0 | 0.00 | 0.00 | 0.00 | 87 | 1007.5 |
| 20260505102044 | 70 | 202 | 4.0 | 8.0 | 0.00 | 0.00 | 0.00 | 87 | 1007.4 |
| 20260505101559 | 70 | 235 | 4.0 | 8.0 | 0.00 | 0.00 | 0.00 | 87 | 1007.4 |
| 20260505101043 | 70 | 208 | 4.0 | 10.0 | 0.00 | 0.00 | 0.00 | 87 | 1007.4 |
| 20260505100545 | 70 | 221 | 5.0 | 11.0 | 0.00 | 0.00 | 0.00 | 87 | 1007.5 |
| 20260505100053 | 70 | 219 | 5.0 | 11.0 | 0.00 | 0.00 | 0.00 | 87 | 1007.6 |
| 20260505095546 | 70 | 213 | 5.0 | 11.0 | 0.00 | 0.00 | 0.00 | 87 | 1007.5 |
| 20260505095043 | 70 | 218 | 5.0 | 11.0 | 0.00 | 0.00 | 0.00 | 87 | 1007.6 |
| 20260505094545 | 70 | 214 | 4.0 | 11.0 | 0.00 | 0.00 | 0.00 | 87 | 1007.5 |
| 20260505094045 | 70 | 222 | 5.0 | 11.0 | 0.00 | 0.00 | 0.00 | 87 | 1007.6 |
| 20260505093543 | 70 | 216 | 4.0 | 10.0 | 0.00 | 0.00 | 0.00 | 87 | 1007.6 |
| 20260505093050 | 70 | 225 | 5.0 | 9.0 | 0.00 | 0.00 | 0.00 | 87 | 1007.9 |
| 20260505092542 | 70 | 229 | 4.0 | 9.0 | 0.00 | 0.00 | 0.00 | 87 | 1007.9 |
| 20260505092042 | 70 | 210 | 5.0 | 9.0 | 0.00 | 0.00 | 0.00 | 87 | 1007.7 |
| 20260505091556 | 70 | 232 | 5.0 | 9.0 | 0.00 | 0.00 | 0.00 | 87 | 1007.8 |
| 20260505091043 | 70 | 221 | 5.0 | 8.0 | 0.00 | 0.00 | 0.00 | 87 | 1007.8 |
| 20260505090547 | 70 | 227 | 4.0 | 8.0 | 0.00 | 0.00 | 0.00 | 87 | 1007.9 |
| 20260505090059 | 70 | 208 | 4.0 | 9.0 | 0.00 | 0.00 | 0.00 | 87 | 1008.1 |
| 20260505085544 | 70 | 239 | 4.0 | 9.0 | 0.00 | 0.00 | 0.00 | 87 | 1008.2 |
| 20260505085044 | 70 | 203 | 4.0 | 10.0 | 0.00 | 0.00 | 0.00 | 87 | 1008.1 |
| 20260505084550 | 70 | 230 | 4.0 | 11.0 | 0.00 | 0.00 | 0.00 | 87 | 1008.1 |
| 20260505084044 | 70 | 222 | 5.0 | 11.0 | 0.00 | 0.00 | 0.00 | 87 | 1008.0 |
| 20260505083543 | 70 | 225 | 4.0 | 9.0 | 0.00 | 0.00 | 0.00 | 87 | 1008.2 |
| 20260505083053 | 70 | 232 | 4.0 | 8.0 | 0.00 | 0.00 | 0.00 | 87 | 1008.2 |
| 20260505082543 | 70 | 248 | 4.0 | 10.0 | 0.00 | 0.00 | 0.00 | 87 | 1008.3 |
| 20260505082044 | 70 | 220 | 4.0 | 11.0 | 0.00 | 0.00 | 0.00 | 87 | 1008.6 |
| 20260505081600 | 70 | 219 | 4.0 | 11.0 | 0.00 | 0.00 | 0.00 | 87 | 1008.6 |
| 20260505081042 | 70 | 189 | 4.0 | 9.0 | 0.00 | 0.00 | 0.00 | 87 | 1008.5 |
| 20260505080542 | 70 | 236 | 5.0 | 10.0 | 0.00 | 0.00 | 0.00 | 87 | 1008.6 |
| 20260505080053 | 70 | 204 | 5.0 | 13.0 | 0.00 | 0.00 | 0.00 | 86 | 1008.7 |
| 20260505075542 | 70 | 219 | 6.0 | 13.0 | 0.00 | 0.00 | 0.00 | 87 | 1008.7 |
| 20260505075042 | 70 | 238 | 4.0 | 10.0 | 0.00 | 0.00 | 0.00 | 87 | 1008.5 |
| 20260505074606 | 70 | 215 | 5.0 | 10.0 | 0.00 | 0.00 | 0.00 | 87 | 1008.7 |
| 20260505074043 | 70 | 243 | 4.0 | 8.0 | 0.00 | 0.00 | 0.00 | 87 | 1008.8 |
| 20260505073542 | 70 | 214 | 5.0 | 9.0 | 0.00 | 0.00 | 0.00 | 87 | 1008.9 |
| 20260505073054 | 70 | 221 | 4.0 | 10.0 | 0.00 | 0.00 | 0.00 | 87 | 1008.9 |
| 20260505072543 | 70 | 216 | 4.0 | 10.0 | 0.00 | 0.00 | 0.00 | 87 | 1009.0 |
| 20260505072043 | 70 | 223 | 5.0 | 10.0 | 0.00 | 0.00 | 0.00 | 87 | 1009.1 |
| 20260505071548 | 70 | 236 | 4.0 | 12.0 | 0.00 | 0.00 | 0.00 | 87 | 1009.2 |
| 20260505071043 | 70 | 214 | 5.0 | 12.0 | 0.00 | 0.00 | 0.00 | 87 | 1009.2 |
| 20260505070543 | 70 | 232 | 4.0 | 10.0 | 0.00 | 0.00 | 0.00 | 87 | 1009.2 |
| 20260505070052 | 70 | 227 | 4.0 | 11.0 | 0.00 | 0.00 | 0.00 | 86 | 1009.2 |
| 20260505065543 | 70 | 211 | 5.0 | 11.0 | 0.00 | 0.00 | 0.00 | 86 | 1009.3 |
| 20260505065042 | 70 | 231 | 4.0 | 12.0 | 0.00 | 0.00 | 0.00 | 86 | 1009.4 |
| 20260505064549 | 70 | 220 | 5.0 | 12.0 | 0.00 | 0.00 | 0.00 | 86 | 1009.2 |
| 20260505064042 | 70 | 232 | 5.0 | 11.0 | 0.00 | 0.00 | 0.00 | 86 | 1009.2 |
| 20260505063544 | 70 | 217 | 5.0 | 13.0 | 0.00 | 0.00 | 0.00 | 87 | 1009.3 |
| 20260505063055 | 70 | 215 | 5.0 | 13.0 | 0.00 | 0.00 | 0.00 | 87 | 1009.5 |
| 20260505062541 | 70 | 208 | 5.0 | 9.0 | 0.00 | 0.00 | 0.00 | 87 | 1009.4 |
| 20260505062042 | 70 | 252 | 4.0 | 14.0 | 0.00 | 0.00 | 0.00 | 87 | 1009.6 |
| 20260505061616 | 70 | 185 | 5.0 | 14.0 | 0.00 | 0.00 | 0.00 | 87 | 1009.4 |
| 20260505061041 | 70 | 251 | 5.0 | 12.0 | 0.00 | 0.00 | 0.00 | 87 | 1009.5 |
| 20260505060550 | 70 | 212 | 4.0 | 10.0 | 0.00 | 0.00 | 0.00 | 87 | 1009.6 |
| 20260505060052 | 70 | 202 | 5.0 | 11.0 | 0.00 | 0.00 | 0.00 | 86 | 1009.6 |
| 20260505055544 | 70 | 235 | 4.0 | 12.0 | 0.00 | 0.00 | 0.00 | 86 | 1009.6 |
| 20260505055049 | 70 | 244 | 5.0 | 12.0 | 0.00 | 0.00 | 0.00 | 86 | 1009.6 |
| 20260505054604 | 70 | 222 | 4.0 | 11.0 | 0.00 | 0.00 | 0.00 | 86 | 1009.8 |
| 20260505054045 | 70 | 210 | 5.0 | 11.0 | 0.00 | 0.00 | 0.00 | 86 | 1009.6 |
| 20260505053541 | 70 | 238 | 5.0 | 9.0 | 0.00 | 0.00 | 0.00 | 86 | 1009.5 |
| 20260505053057 | 70 | 236 | 5.0 | 10.0 | 0.00 | 0.00 | 0.00 | 85 | 1009.5 |
| 20260505052541 | 71 | 232 | 5.0 | 10.0 | 0.00 | 0.00 | 0.00 | 85 | 1009.5 |
| 20260505052042 | 71 | 243 | 5.0 | 10.0 | 0.00 | 0.00 | 0.00 | 85 | 1009.5 |
| 20260505051549 | 71 | 212 | 4.0 | 13.0 | 0.00 | 0.00 | 0.00 | 85 | 1009.3 |
| 20260505051045 | 71 | 211 | 6.0 | 13.0 | 0.00 | 0.00 | 0.00 | 84 | 1009.4 |
| 20260505050541 | 71 | 207 | 5.0 | 12.0 | 0.00 | 0.00 | 0.00 | 84 | 1009.4 |
| 20260505041548 | 71 | 219 | 3.0 | 8.0 | 0.00 | 0.00 | 0.00 | 83 | 1009.4 |
| 20260505041041 | 71 | 192 | 3.0 | 8.0 | 0.00 | 0.00 | 0.00 | 83 | 1009.5 |
| 20260505040543 | 71 | 217 | 3.0 | 8.0 | 0.00 | 0.00 | 0.00 | 83 | 1009.5 |
| 20260505040053 | 72 | 228 | 3.0 | 8.0 | 0.00 | 0.00 | 0.00 | 83 | 1009.6 |
| 20260505035542 | 72 | 221 | 3.0 | 8.0 | 0.00 | 0.00 | 0.00 | 83 | 1009.6 |
| 20260505035041 | 72 | 205 | 3.0 | 9.0 | 0.00 | 0.00 | 0.00 | 82 | 1009.6 |
| 20260505034548 | 72 | 233 | 3.0 | 9.0 | 0.00 | 0.00 | 0.00 | 82 | 1009.6 |
| 20260505034045 | 72 | 221 | 3.0 | 9.0 | 0.00 | 0.00 | 0.00 | 82 | 1009.6 |
| 20260505033545 | 72 | 227 | 3.0 | 9.0 | 0.00 | 0.00 | 0.00 | 82 | 1009.6 |
| 20260505033055 | 72 | 208 | 3.0 | 9.0 | 0.00 | 0.00 | 0.00 | 81 | 1009.7 |
| 20260505032545 | 72 | 202 | 3.0 | 9.0 | 0.00 | 0.00 | 0.00 | 81 | 1009.6 |
| 20260505032045 | 72 | 230 | 3.0 | 8.0 | 0.00 | 0.00 | 0.00 | 80 | 1009.5 |
| 20260505031556 | 72 | 232 | 3.0 | 7.0 | 0.00 | 0.00 | 0.00 | 80 | 1009.6 |
| 20260505031045 | 73 | 244 | 2.0 | 7.0 | 0.00 | 0.00 | 0.00 | 80 | 1009.5 |
| 20260505030544 | 73 | 213 | 2.0 | 7.0 | 0.00 | 0.00 | 0.00 | 79 | 1009.5 |
| 20260505030049 | 73 | 179 | 3.0 | 8.0 | 0.00 | 0.00 | 0.00 | 78 | 1009.4 |
| 20260505025545 | 73 | 188 | 3.0 | 8.0 | 0.00 | 0.00 | 0.00 | 78 | 1009.3 |
| 20260505025043 | 73 | 206 | 4.0 | 11.0 | 0.00 | 0.00 | 0.00 | 78 | 1009.4 |
| 20260505024607 | 73 | 210 | 3.0 | 11.0 | 0.00 | 0.00 | 0.00 | 78 | 1009.6 |
| 20260505024044 | 73 | 214 | 3.0 | 9.0 | 0.00 | 0.00 | 0.00 | 77 | 1009.4 |
| 20260505023545 | 73 | 223 | 4.0 | 8.0 | 0.00 | 0.00 | 0.00 | 77 | 1009.4 |
| 20260505023056 | 74 | 211 | 3.0 | 8.0 | 0.00 | 0.00 | 0.00 | 76 | 1009.2 |
| 20260505022545 | 74 | 194 | 3.0 | 8.0 | 0.00 | 0.00 | 0.00 | 76 | 1009.3 |
| 20260505022045 | 74 | 215 | 3.0 | 9.0 | 0.00 | 0.00 | 0.00 | 76 | 1009.4 |
| 20260505021613 | 74 | 200 | 3.0 | 11.0 | 0.00 | 0.00 | 0.00 | 75 | 1009.2 |
| 20260505021044 | 74 | 216 | 4.0 | 11.0 | 0.00 | 0.00 | 0.00 | 75 | 1009.2 |
| 20260505020544 | 74 | 204 | 4.0 | 9.0 | 0.00 | 0.00 | 0.00 | 75 | 1009.1 |
| 20260505020057 | 74 | 212 | 3.0 | 9.0 | 0.00 | 0.00 | 0.00 | 75 | 1009.0 |
| 20260505015545 | 74 | 223 | 3.0 | 7.0 | 0.00 | 0.00 | 0.00 | 75 | 1009.0 |
| 20260505015045 | 74 | 214 | 3.0 | 7.0 | 0.00 | 0.00 | 0.00 | 75 | 1009.0 |
| 20260505014553 | 74 | 225 | 3.0 | 7.0 | 0.00 | 0.00 | 0.00 | 74 | 1008.9 |
| 20260505014044 | 74 | 208 | 2.0 | 6.0 | 0.00 | 0.00 | 0.00 | 74 | 1009.0 |
| 20260505013544 | 75 | 218 | 3.0 | 6.0 | 0.00 | 0.00 | 0.00 | 74 | 1009.0 |
| 20260505013053 | 75 | 217 | 2.0 | 7.0 | 0.00 | 0.00 | 0.00 | 74 | 1009.0 |
| 20260505012541 | 75 | 218 | 2.0 | 7.0 | 0.00 | 0.00 | 0.00 | 73 | 1009.1 |
| 20260505012046 | 75 | 214 | 3.0 | 7.0 | 0.00 | 0.00 | 0.00 | 72 | 1009.0 |
| 20260505011558 | 75 | 198 | 3.0 | 7.0 | 0.00 | 0.00 | 0.00 | 72 | 1009.1 |
| 20260505011045 | 76 | 221 | 3.0 | 8.0 | 0.00 | 0.00 | 0.00 | 72 | 1009.0 |
| 20260505010544 | 76 | 220 | 3.0 | 8.0 | 0.00 | 0.00 | 0.00 | 72 | 1009.1 |
| 20260505010055 | 76 | 202 | 3.0 | 8.0 | 0.00 | 0.00 | 0.00 | 71 | 1009.0 |
| 20260505005541 | 76 | 207 | 3.0 | 8.0 | 0.00 | 0.00 | 0.00 | 71 | 1009.1 |
| 20260505005045 | 77 | 198 | 3.0 | 8.0 | 0.00 | 0.00 | 0.00 | 70 | 1009.1 |
| 20260505004550 | 77 | 208 | 4.0 | 9.0 | 0.00 | 0.00 | 0.00 | 70 | 1008.9 |
| 20260505004044 | 77 | 209 | 3.0 | 9.0 | 0.00 | 0.00 | 0.00 | 70 | 1009.0 |
| 20260505003544 | 77 | 207 | 3.0 | 11.0 | 0.00 | 0.00 | 0.00 | 69 | 1009.0 |
| 20260505003050 | 78 | 224 | 4.0 | 11.0 | 0.00 | 0.00 | 0.00 | 69 | 1009.1 |
| 20260505002548 | 78 | 242 | 3.0 | 11.0 | 0.00 | 0.00 | 0.00 | 68 | 1009.1 |
| 20260505002044 | 78 | 189 | 5.0 | 10.0 | 0.00 | 0.00 | 0.00 | 68 | 1009.0 |